TimeEST,TemperatureF,Dew PointF,Humidity,Sea Level PressureIn,VisibilityMPH,Wind Direction,Wind SpeedMPH,Gust SpeedMPH,PrecipitationIn,Events,Conditions,WindDirDegrees,DateUTC
12:15 AM,43.7,42.3,95,29.99,10.0,Calm,Calm,-,N/A,,Clear,0,2013-02-20 05:15:00
12:35 AM,44.1,42.8,95,29.99,10.0,WSW,3.5,-,N/A,,Clear,250,2013-02-20 05:35:00
1:15 AM,44.4,41.2,88,30.00,10.0,WSW,4.6,-,N/A,,Clear,250,2013-02-20 06:15:00
1:35 AM,44.2,40.1,85,30.01,10.0,West,4.6,-,N/A,,Clear,270,2013-02-20 06:35:00
1:55 AM,43.9,39.7,85,30.01,10.0,West,3.5,-,N/A,,Clear,260,2013-02-20 06:55:00
2:15 AM,43.5,39.4,85,30.02,10.0,West,3.5,-,N/A,,Clear,270,2013-02-20 07:15:00
2:35 AM,43.0,38.8,85,30.02,10.0,Calm,Calm,-,N/A,,Clear,0,2013-02-20 07:35:00
2:55 AM,42.4,37.9,84,30.02,10.0,Calm,Calm,-,N/A,,Clear,0,2013-02-20 07:55:00
3:15 AM,41.4,37.2,85,30.02,10.0,Calm,Calm,-,N/A,,Clear,0,2013-02-20 08:15:00
3:35 AM,40.1,36.5,87,30.03,10.0,Calm,Calm,-,N/A,,Clear,0,2013-02-20 08:35:00
3:55 AM,39.4,36.5,89,30.03,10.0,Calm,Calm,-,N/A,,Clear,0,2013-02-20 08:55:00
4:15 AM,39.0,36.0,89,30.03,10.0,Calm,Calm,-,N/A,,Clear,0,2013-02-20 09:15:00
4:35 AM,38.5,35.1,87,30.04,10.0,Calm,Calm,-,N/A,,Clear,0,2013-02-20 09:35:00
4:55 AM,37.8,34.7,89,30.05,10.0,Calm,Calm,-,N/A,,Clear,0,2013-02-20 09:55:00
5:15 AM,37.4,34.0,87,30.06,10.0,Calm,Calm,-,N/A,,Clear,0,2013-02-20 10:15:00
5:35 AM,37.4,32.9,84,30.07,10.0,Calm,Calm,-,N/A,,Clear,0,2013-02-20 10:35:00
5:55 AM,35.8,32.4,87,30.07,10.0,Calm,Calm,-,N/A,,Clear,0,2013-02-20 10:55:00
6:15 AM,34.0,32.0,92,30.07,10.0,Calm,Calm,-,N/A,,Clear,0,2013-02-20 11:15:00
6:35 AM,33.6,31.8,93,30.08,10.0,Calm,Calm,-,N/A,,Clear,0,2013-02-20 11:35:00
6:55 AM,32.9,31.3,94,30.09,10.0,Calm,Calm,-,N/A,,Clear,0,2013-02-20 11:55:00
7:15 AM,32.0,30.9,96,30.10,10.0,Calm,Calm,-,N/A,,Clear,0,2013-02-20 12:15:00
7:35 AM,32.9,31.8,96,30.11,10.0,Calm,Calm,-,N/A,,Clear,0,2013-02-20 12:35:00
7:55 AM,34.7,32.0,90,30.12,10.0,Calm,Calm,-,N/A,,Clear,0,2013-02-20 12:55:00
8:15 AM,38.3,31.8,77,30.12,10.0,Calm,Calm,-,N/A,,Clear,0,2013-02-20 13:15:00
8:35 AM,40.3,29.5,65,30.12,10.0,Calm,Calm,-,N/A,,Clear,0,2013-02-20 13:35:00
8:55 AM,41.9,27.3,56,30.12,10.0,Calm,Calm,-,N/A,,Clear,0,2013-02-20 13:55:00
9:15 AM,43.2,23.9,47,30.12,10.0,Calm,Calm,-,N/A,,Clear,0,2013-02-20 14:15:00
9:35 AM,44.1,19.2,37,30.13,10.0,NNW,3.5,-,N/A,,Clear,340,2013-02-20 14:35:00
9:55 AM,44.8,19.6,37,30.13,10.0,Calm,Calm,-,N/A,,Clear,0,2013-02-20 14:55:00
10:15 AM,46.2,18.7,33,30.13,10.0,WNW,4.6,-,N/A,,Clear,300,2013-02-20 15:15:00
10:35 AM,47.1,17.6,31,30.13,10.0,Calm,Calm,-,N/A,,Clear,0,2013-02-20 15:35:00
10:55 AM,48.4,19.8,32,30.13,10.0,Calm,Calm,-,N/A,,Clear,0,2013-02-20 15:55:00
11:15 AM,49.1,16.5,27,30.13,10.0,West,3.5,-,N/A,,Clear,270,2013-02-20 16:15:00
11:35 AM,50.7,17.2,27,30.12,10.0,West,3.5,-,N/A,,Clear,260,2013-02-20 16:35:00
11:55 AM,50.5,14.5,24,30.11,10.0,West,6.9,-,N/A,,Clear,280,2013-02-20 16:55:00
12:15 PM,51.4,12.2,21,30.10,10.0,WSW,3.5,-,N/A,,Clear,250,2013-02-20 17:15:00
12:35 PM,51.6,10.6,19,30.09,10.0,West,5.8,-,N/A,,Clear,270,2013-02-20 17:35:00
12:55 PM,51.1,12.2,21,30.08,10.0,West,4.6,-,N/A,,Clear,260,2013-02-20 17:55:00
1:15 PM,53.1,12.4,20,30.07,10.0,West,6.9,-,N/A,,Clear,260,2013-02-20 18:15:00
1:35 PM,53.2,10.0,18,30.06,10.0,Calm,Calm,-,N/A,,Clear,0,2013-02-20 18:35:00
1:55 PM,54.7,10.9,18,30.05,10.0,West,5.8,-,N/A,,Clear,270,2013-02-20 18:55:00
2:15 PM,54.1,11.3,18,30.04,10.0,WSW,5.8,-,N/A,,Clear,250,2013-02-20 19:15:00
2:35 PM,55.0,12.4,18,30.04,10.0,WSW,4.6,-,N/A,,Clear,240,2013-02-20 19:35:00
2:55 PM,55.6,11.7,18,30.04,10.0,West,5.8,-,N/A,,Clear,280,2013-02-20 19:55:00
3:35 PM,55.8,11.5,17,30.03,10.0,SW,3.5,-,N/A,,Clear,230,2013-02-20 20:35:00
3:55 PM,55.9,12.7,18,30.03,10.0,West,3.5,-,N/A,,Clear,260,2013-02-20 20:55:00
4:15 PM,55.4,13.3,19,30.04,10.0,Calm,Calm,-,N/A,,Clear,0,2013-02-20 21:15:00
4:35 PM,56.1,14.7,20,30.04,10.0,Calm,Calm,-,N/A,,Clear,0,2013-02-20 21:35:00
4:55 PM,55.8,17.4,22,30.05,10.0,SW,5.8,-,N/A,,Clear,230,2013-02-20 21:55:00
5:15 PM,55.4,16.5,22,30.06,10.0,Calm,Calm,-,N/A,,Clear,0,2013-02-20 22:15:00
5:35 PM,53.6,20.1,27,30.05,10.0,Calm,Calm,-,N/A,,Clear,0,2013-02-20 22:35:00
5:55 PM,51.1,21.9,32,30.05,10.0,Calm,Calm,-,N/A,,Clear,0,2013-02-20 22:55:00
6:15 PM,49.5,23.4,36,30.07,10.0,Calm,Calm,-,N/A,,Clear,0,2013-02-20 23:15:00
6:35 PM,48.4,24.6,39,30.08,10.0,Calm,Calm,-,N/A,,Clear,0,2013-02-20 23:35:00
6:55 PM,46.6,28.6,50,30.08,10.0,Calm,Calm,-,N/A,,Clear,0,2013-02-20 23:55:00
7:15 PM,45.5,30.6,56,30.09,10.0,Calm,Calm,-,N/A,,Clear,0,2013-02-21 00:15:00
7:35 PM,45.3,29.7,54,30.10,10.0,Calm,Calm,-,N/A,,Clear,0,2013-02-21 00:35:00
7:55 PM,45.5,30.2,55,30.10,10.0,Calm,Calm,-,N/A,,Clear,0,2013-02-21 00:55:00
8:15 PM,45.0,30.0,56,30.10,10.0,Calm,Calm,-,N/A,,Clear,0,2013-02-21 01:15:00
8:35 PM,43.3,31.6,63,30.10,10.0,Calm,Calm,-,N/A,,Clear,0,2013-02-21 01:35:00
8:55 PM,43.3,32.7,66,30.09,10.0,Calm,Calm,-,N/A,,Clear,0,2013-02-21 01:55:00
9:15 PM,42.1,34.0,73,30.09,10.0,Calm,Calm,-,N/A,,Clear,0,2013-02-21 02:15:00
9:35 PM,40.6,32.0,71,30.10,10.0,Calm,Calm,-,N/A,,Clear,0,2013-02-21 02:35:00
10:15 PM,38.7,31.3,75,30.11,10.0,Calm,Calm,-,N/A,,Clear,0,2013-02-21 03:15:00
10:35 PM,38.3,31.6,77,30.10,10.0,Calm,Calm,-,N/A,,Clear,0,2013-02-21 03:35:00
10:55 PM,37.8,31.8,79,30.10,10.0,Calm,Calm,-,N/A,,Clear,0,2013-02-21 03:55:00
11:15 PM,37.0,32.0,82,30.10,10.0,Calm,Calm,-,N/A,,Clear,0,2013-02-21 04:15:00
11:35 PM,36.3,30.7,80,30.11,10.0,Calm,Calm,-,N/A,,Clear,0,2013-02-21 04:35:00
11:55 PM,35.8,31.1,83,30.10,10.0,Calm,Calm,-,N/A,,Clear,0,2013-02-21 04:55:00